User: anonymous   Login
Location: Caltech
(34.1382°N, 118.1253°W)
Time: 08:01:10
(UTC-07:00)
Language:

Oscar 10/S400 - Orbit

View from above orbital plane
View from above orbital plane
View from above satellite
View from above satellite

Ground track
Ground track

The orbit data is extracted from the following two-line orbital elements,

1 14129U 83058B   16119.98811711  .00000186  00000-0  00000+0 0  9999
2 14129  26.6644 100.6516 6012736 194.4615 328.4644  2.05867158219286
Epoch (UTC): 28 April 2016 23:42:53
Eccentricity: 0.6012736
inclination: 26.6644°
perigee height: 4029 km
apogee height: 35418 km
right ascension of ascending node: 100.6516°
argument of perigee: 194.4615°
revolutions per day: 2.05867158
mean anomaly at epoch: 328.4644°
orbit number at epoch: 21928

The dashed part of the orbit path shows where the satellite is in the earth's shadow,  

DLR